ETD642 HKJK-OMAA

Flight info

Callsign ETD642
Flight time N/A
Altitude 39000
Route ATUDU1D WAV UP312 MAV UB403 BOMIX B403 RIGAM B400 NODMA/N0489F410 B400 DAXAM Y414 DEDSO R401 VELIK/N0492F400 R401 DOLFI P558 SODEX N563 NOBTO
Aircraft B789/H-SDE1E2E3FGHIJ2J3J4J5M1RWXY/LB1D1

Departure

Time 2026-05-07 02:18
Airport Jomo Kenyatta International Airport (HKJK)

Arrival

Time N/A
Airport Zayed International Airport (OMAA)
Time Latitude Longitude Altitude Speed Heading
2026-05-07 01:47 -1.32921 36.92654 5326 ft 0 kts 229°
2026-05-07 01:51 -1.32921 36.92653 5326 ft 0 kts 229°
2026-05-07 01:51 -1.32922 36.92653 5327 ft 0 kts 231°
2026-05-07 02:04 -1.32918 36.92658 5321 ft 4 kts 232°
2026-05-07 02:05 -1.32900 36.92679 5327 ft 4 kts 226°
2026-05-07 02:05 -1.32884 36.92697 5324 ft 4 kts 226°
2026-05-07 02:05 -1.32864 36.92709 5326 ft 4 kts 172°
2026-05-07 02:05 -1.32842 36.92698 5326 ft 4 kts 138°
2026-05-07 02:06 -1.32832 36.92689 5326 ft 1 kts 140°
2026-05-07 02:06 -1.32831 36.92688 5326 ft 0 kts 140°
2026-05-07 02:09 -1.32832 36.92689 5329 ft 0 kts 140°
2026-05-07 02:09 -1.32839 36.92695 5329 ft 2 kts 139°
2026-05-07 02:10 -1.32849 36.92706 5329 ft 3 kts 130°
2026-05-07 02:10 -1.32848 36.92724 5325 ft 2 kts 60°
2026-05-07 02:10 -1.32835 36.92724 5327 ft 2 kts 357°
2026-05-07 02:10 -1.32823 36.92698 5326 ft 7 kts 279°
2026-05-07 02:11 -1.32811 36.92657 5324 ft 6 kts 296°
2026-05-07 02:11 -1.32794 36.92622 5325 ft 6 kts 296°
2026-05-07 02:11 -1.32779 36.92585 5327 ft 6 kts 289°
2026-05-07 02:11 -1.32770 36.92543 5325 ft 7 kts 280°
2026-05-07 02:12 -1.32767 36.92490 5326 ft 8 kts 269°
2026-05-07 02:12 -1.32766 36.92435 5327 ft 8 kts 281°
2026-05-07 02:12 -1.32738 36.92390 5326 ft 6 kts 316°
2026-05-07 02:12 -1.32702 36.92358 5327 ft 8 kts 311°
2026-05-07 02:13 -1.32690 36.92329 5326 ft 0 kts 282°
2026-05-07 02:13 -1.32695 36.92298 5327 ft 10 kts 252°
2026-05-07 02:13 -1.32736 36.92226 5328 ft 12 kts 232°
2026-05-07 02:13 -1.32783 36.92166 5328 ft 10 kts 234°
2026-05-07 02:14 -1.32821 36.92112 5328 ft 9 kts 236°
2026-05-07 02:14 -1.32855 36.92064 5328 ft 8 kts 234°
2026-05-07 02:14 -1.32883 36.92020 5329 ft 7 kts 242°
2026-05-07 02:14 -1.32896 36.91976 5329 ft 7 kts 261°
2026-05-07 02:15 -1.32891 36.91920 5328 ft 9 kts 279°
2026-05-07 02:15 -1.32880 36.91843 5336 ft 13 kts 279°
2026-05-07 02:15 -1.32872 36.91756 5335 ft 12 kts 283°
2026-05-07 02:15 -1.32824 36.91698 5333 ft 11 kts 321°
2026-05-07 02:16 -1.32765 36.91669 5337 ft 8 kts 357°
2026-05-07 02:16 -1.32718 36.91697 5334 ft 9 kts 50°
2026-05-07 02:16 -1.32692 36.91731 5334 ft 1 kts 53°
2026-05-07 02:16 -1.32690 36.91733 5334 ft 0 kts 53°
2026-05-07 02:17 -1.32689 36.91735 5334 ft 0 kts 53°
2026-05-07 02:17 -1.32610 36.91842 5332 ft 48 kts 54°
2026-05-07 02:18 -1.32277 36.92301 5306 ft 114 kts 54°
2026-05-07 02:18 -1.31685 36.93095 5298 ft 170 kts 52°
2026-05-07 02:18 -1.30914 36.94118 5724 ft 186 kts 54°
2026-05-07 02:18 -1.30260 36.95245 6550 ft 184 kts 78°
2026-05-07 02:19 -1.30169 36.96411 7625 ft 164 kts 90°
2026-05-07 02:19 -1.30113 36.97670 7844 ft 198 kts 84°
2026-05-07 02:19 -1.30004 36.99061 8525 ft 209 kts 85°
2026-05-07 02:19 -1.29804 37.00554 9220 ft 215 kts 81°
2026-05-07 02:20 -1.29585 37.02045 9986 ft 226 kts 81°
2026-05-07 02:20 -1.29361 37.03689 10357 ft 251 kts 82°
2026-05-07 02:20 -1.29128 37.05516 10726 ft 278 kts 82°
2026-05-07 02:20 -1.28870 37.07541 11141 ft 312 kts 82°
2026-05-07 02:21 -1.28575 37.09803 11116 ft 348 kts 82°
2026-05-07 02:21 -1.28258 37.12236 11119 ft 355 kts 82°
2026-05-07 02:21 -1.27717 37.14623 11321 ft 353 kts 67°
2026-05-07 02:21 -1.26398 37.16693 11657 ft 357 kts 47°
2026-05-07 02:22 -1.24641 37.18454 11991 ft 359 kts 45°
2026-05-07 02:22 -1.22833 37.20193 12319 ft 362 kts 44°
2026-05-07 02:22 -1.21006 37.21933 12638 ft 363 kts 44°
2026-05-07 02:22 -1.19173 37.23710 12980 ft 372 kts 45°
2026-05-07 02:23 -1.17334 37.25504 14131 ft 371 kts 45°
2026-05-07 02:23 -1.15468 37.27313 15034 ft 376 kts 44°
2026-05-07 02:23 -1.13575 37.29140 15933 ft 382 kts 44°
2026-05-07 02:23 -1.11659 37.30994 16852 ft 386 kts 44°
2026-05-07 02:24 -1.09716 37.32878 17671 ft 392 kts 44°
2026-05-07 02:24 -1.07753 37.34781 18488 ft 396 kts 44°
2026-05-07 02:24 -1.05761 37.36708 19192 ft 401 kts 44°
2026-05-07 02:24 -1.03746 37.38658 19913 ft 406 kts 44°
2026-05-07 02:25 -1.01706 37.40635 20598 ft 411 kts 44°
2026-05-07 02:25 -0.99639 37.42637 21301 ft 415 kts 44°
2026-05-07 02:25 -0.97548 37.44661 21932 ft 421 kts 44°
2026-05-07 02:25 -0.95436 37.46705 22594 ft 425 kts 44°
2026-05-07 02:26 -0.93301 37.48773 23167 ft 431 kts 44°
2026-05-07 02:26 -0.91136 37.50870 23739 ft 435 kts 43°
2026-05-07 02:26 -0.88954 37.52982 24222 ft 440 kts 43°
2026-05-07 02:26 -0.86750 37.55117 24742 ft 443 kts 43°
2026-05-07 02:27 -0.84528 37.57267 25224 ft 447 kts 43°
2026-05-07 02:27 -0.82287 37.59438 25746 ft 450 kts 43°
2026-05-07 02:27 -0.80029 37.61624 26212 ft 454 kts 43°
2026-05-07 02:27 -0.77752 37.63828 26717 ft 457 kts 43°
2026-05-07 02:28 -0.75458 37.66049 27146 ft 461 kts 43°
2026-05-07 02:28 -0.73146 37.68287 27632 ft 464 kts 43°
2026-05-07 02:28 -0.70815 37.70544 28063 ft 469 kts 43°
2026-05-07 02:28 -0.68465 37.72818 28509 ft 472 kts 44°
2026-05-07 02:29 -0.66095 37.75113 28907 ft 476 kts 44°
2026-05-07 02:29 -0.63708 37.77425 29342 ft 480 kts 44°
2026-05-07 02:29 -0.61303 37.79753 29761 ft 483 kts 44°
2026-05-07 02:29 -0.58881 37.82097 30140 ft 486 kts 44°
2026-05-07 02:30 -0.56445 37.84455 30508 ft 489 kts 44°
2026-05-07 02:30 -0.53996 37.86826 30851 ft 492 kts 44°
2026-05-07 02:30 -0.51532 37.89210 31184 ft 494 kts 44°
2026-05-07 02:30 -0.49056 37.91608 31491 ft 497 kts 44°
2026-05-07 02:31 -0.46568 37.94016 31810 ft 500 kts 44°
2026-05-07 02:31 -0.44069 37.96435 32109 ft 502 kts 44°
2026-05-07 02:31 -0.41553 37.98870 32409 ft 504 kts 44°
2026-05-07 02:31 -0.39028 38.01314 32697 ft 507 kts 44°
2026-05-07 02:32 -0.36496 38.03765 33078 ft 506 kts 44°
2026-05-07 02:32 -0.33968 38.06213 33513 ft 505 kts 44°
2026-05-07 02:32 -0.31441 38.08659 33930 ft 505 kts 44°
2026-05-07 02:32 -0.28918 38.11100 34298 ft 504 kts 43°
2026-05-07 02:33 -0.26408 38.13539 34627 ft 503 kts 43°
2026-05-07 02:33 -0.23883 38.15958 35018 ft 502 kts 43°
2026-05-07 02:33 -0.21417 38.18354 35400 ft 501 kts 44°
2026-05-07 02:33 -0.18926 38.20781 35766 ft 500 kts 43°
2026-05-07 02:34 -0.16424 38.23199 36113 ft 500 kts 43°
2026-05-07 02:34 -0.13928 38.25606 36472 ft 499 kts 43°
2026-05-07 02:34 -0.11435 38.28019 36846 ft 498 kts 43°
2026-05-07 02:34 -0.08953 38.30428 37192 ft 498 kts 43°
2026-05-07 02:35 -0.06470 38.32831 37562 ft 496 kts 42°
2026-05-07 02:35 -0.03988 38.35228 37896 ft 496 kts 43°
2026-05-07 02:35 -0.01513 38.37626 38239 ft 495 kts 43°
2026-05-07 02:35 0.00958 38.40018 38614 ft 493 kts 43°
2026-05-07 02:36 0.03414 38.42396 38968 ft 491 kts 43°
2026-05-07 02:36 0.05862 38.44765 39237 ft 490 kts 43°
2026-05-07 02:36 0.08309 38.47133 39495 ft 489 kts 43°
2026-05-07 02:36 0.10752 38.49498 39766 ft 489 kts 43°
2026-05-07 02:37 0.13191 38.51858 40032 ft 488 kts 43°
2026-05-07 02:37 0.15629 38.54218 40294 ft 487 kts 43°
2026-05-07 02:37 0.18059 38.56570 40546 ft 487 kts 43°
2026-05-07 02:37 0.20491 38.58924 40799 ft 486 kts 43°
2026-05-07 02:38 0.22921 38.61276 40926 ft 488 kts 43°
2026-05-07 02:38 0.25367 38.63642 40932 ft 490 kts 43°
2026-05-07 02:38 0.30241 38.68361 40924 ft 486 kts 43°
2026-05-07 02:39 0.35086 38.73051 40930 ft 485 kts 43°
2026-05-07 02:39 0.39928 38.77738 40925 ft 484 kts 43°
2026-05-07 02:40 0.43980 38.81660 40924 ft 484 kts 42°
2026-05-07 02:40 0.48787 38.86313 40921 ft 484 kts 43°
2026-05-07 02:41 0.53629 38.91000 40920 ft 485 kts 42°
2026-05-07 02:41 0.58487 38.95703 40920 ft 487 kts 42°
2026-05-07 02:42 0.63347 39.00408 40921 ft 486 kts 43°
2026-05-07 02:42 0.68197 39.05102 40919 ft 485 kts 42°
2026-05-07 02:43 0.73046 39.09797 40918 ft 485 kts 43°
2026-05-07 02:43 0.77893 39.14489 40916 ft 485 kts 43°
2026-05-07 02:44 0.82747 39.19189 40918 ft 486 kts 43°
2026-05-07 02:44 0.87602 39.23890 40916 ft 486 kts 43°
2026-05-07 02:45 0.92453 39.28588 40918 ft 485 kts 42°
2026-05-07 02:45 0.97298 39.33278 40919 ft 485 kts 43°
2026-05-07 02:46 1.02139 39.37966 40923 ft 484 kts 43°
2026-05-07 02:46 1.06971 39.42644 40918 ft 483 kts 43°
2026-05-07 02:47 1.11802 39.47323 40913 ft 484 kts 43°
2026-05-07 02:47 1.16638 39.52006 40922 ft 484 kts 43°
2026-05-07 02:48 1.21474 39.56691 40919 ft 483 kts 43°
2026-05-07 02:48 1.26298 39.61363 40917 ft 482 kts 43°
2026-05-07 02:49 1.31116 39.66030 40919 ft 482 kts 43°
2026-05-07 02:49 1.35896 39.70661 40917 ft 482 kts 43°
2026-05-07 02:50 1.40707 39.75320 40917 ft 482 kts 43°
2026-05-07 02:50 1.45521 39.79984 40918 ft 482 kts 43°
2026-05-07 02:51 1.50333 39.84646 40917 ft 481 kts 43°
2026-05-07 02:51 1.55140 39.89303 40917 ft 481 kts 43°
2026-05-07 02:52 1.59943 39.93958 40917 ft 481 kts 43°
2026-05-07 02:52 1.64750 39.98616 40923 ft 481 kts 43°
2026-05-07 02:53 1.69557 40.03274 40920 ft 481 kts 43°
2026-05-07 02:53 1.74363 40.07926 40919 ft 481 kts 41°
2026-05-07 02:54 1.79544 40.12137 40918 ft 479 kts 37°
2026-05-07 02:54 1.84751 40.16300 40922 ft 479 kts 38°
2026-05-07 02:55 1.89953 40.20471 40938 ft 479 kts 38°
2026-05-07 02:55 1.95160 40.24636 40925 ft 479 kts 38°
2026-05-07 02:56 2.00363 40.28806 40931 ft 480 kts 38°
2026-05-07 02:56 2.05541 40.32951 40930 ft 480 kts 38°
2026-05-07 02:57 2.10754 40.37127 40932 ft 480 kts 38°
2026-05-07 02:57 2.15969 40.41305 40939 ft 481 kts 38°
2026-05-07 02:58 2.21185 40.45484 40950 ft 481 kts 38°
2026-05-07 02:58 2.26406 40.49666 40930 ft 481 kts 38°
2026-05-07 02:59 2.31630 40.53852 40938 ft 482 kts 38°
2026-05-07 02:59 2.36872 40.58053 40946 ft 483 kts 38°
2026-05-07 03:00 2.42113 40.62265 40947 ft 483 kts 38°
2026-05-07 03:00 2.47299 40.66527 40941 ft 482 kts 38°
2026-05-07 03:01 2.52495 40.70750 40927 ft 481 kts 38°
2026-05-07 03:01 2.57673 40.74981 40939 ft 480 kts 38°
2026-05-07 03:02 2.62843 40.79197 40932 ft 479 kts 38°
2026-05-07 03:02 2.68016 40.83418 40926 ft 481 kts 38°
2026-05-07 03:03 2.73208 40.87656 40938 ft 482 kts 38°
2026-05-07 03:03 2.78406 40.91898 40923 ft 483 kts 38°
2026-05-07 03:04 2.83578 40.96120 40946 ft 482 kts 38°
2026-05-07 03:04 2.88774 41.00362 40929 ft 482 kts 38°
2026-05-07 03:05 2.93953 41.04591 40926 ft 480 kts 38°
2026-05-07 03:05 2.99118 41.08808 40924 ft 479 kts 38°
2026-05-07 03:06 3.04278 41.13023 40927 ft 479 kts 38°
2026-05-07 03:06 3.09448 41.17245 40944 ft 481 kts 38°
2026-05-07 03:07 3.14635 41.21483 40946 ft 482 kts 38°
2026-05-07 03:07 3.19821 41.25720 40948 ft 481 kts 38°
2026-05-07 03:08 3.24996 41.29949 40952 ft 480 kts 38°
2026-05-07 03:08 3.30167 41.34175 40942 ft 480 kts 38°
2026-05-07 03:09 3.35338 41.38401 40942 ft 480 kts 38°
2026-05-07 03:09 3.40517 41.42635 40942 ft 481 kts 38°
2026-05-07 03:10 3.45665 41.46843 40944 ft 480 kts 38°
2026-05-07 03:10 3.50837 41.51072 40935 ft 480 kts 38°
2026-05-07 03:11 3.56006 41.55300 40935 ft 480 kts 38°
2026-05-07 03:11 3.61178 41.59530 40937 ft 480 kts 38°
2026-05-07 03:12 3.66352 41.63763 40931 ft 481 kts 38°
2026-05-07 03:12 3.71532 41.68002 40924 ft 481 kts 38°
2026-05-07 03:13 3.76716 41.72244 40924 ft 481 kts 38°
2026-05-07 03:13 3.81901 41.76487 40929 ft 482 kts 38°
2026-05-07 03:14 3.87094 41.80738 40925 ft 483 kts 39°
2026-05-07 03:15 3.94821 41.87219 40931 ft 483 kts 46°
2026-05-07 03:15 3.99498 41.92052 40925 ft 483 kts 45°
2026-05-07 03:16 4.04180 41.96872 40924 ft 483 kts 45°
2026-05-07 03:16 4.08860 42.01695 40926 ft 483 kts 45°
2026-05-07 03:17 4.13547 42.06525 40928 ft 483 kts 45°
2026-05-07 03:17 4.18230 42.11351 40924 ft 483 kts 45°
2026-05-07 03:18 4.22912 42.16179 40920 ft 483 kts 45°
2026-05-07 03:18 4.27562 42.20972 40919 ft 483 kts 45°
2026-05-07 03:19 4.32245 42.25803 40917 ft 483 kts 45°
2026-05-07 03:19 4.36929 42.30634 40925 ft 483 kts 45°
2026-05-07 03:20 4.41609 42.35462 40931 ft 483 kts 45°
2026-05-07 03:20 4.46288 42.40291 40931 ft 483 kts 45°
2026-05-07 03:21 4.50969 42.45121 40932 ft 483 kts 45°
2026-05-07 03:21 4.55646 42.49950 40931 ft 483 kts 45°
2026-05-07 03:22 4.60320 42.54776 40933 ft 482 kts 45°
2026-05-07 03:22 4.64994 42.59603 40930 ft 482 kts 45°
2026-05-07 03:23 4.69672 42.64434 40932 ft 483 kts 45°
2026-05-07 03:23 4.74348 42.69264 40935 ft 483 kts 45°
2026-05-07 03:24 4.79024 42.74097 40942 ft 482 kts 45°
2026-05-07 03:24 4.83695 42.78925 40948 ft 482 kts 45°
2026-05-07 03:25 4.88364 42.83751 40943 ft 482 kts 45°
2026-05-07 03:25 4.93001 42.88546 40944 ft 482 kts 45°
2026-05-07 03:26 4.97668 42.93373 40951 ft 482 kts 45°
2026-05-07 03:26 5.02336 42.98202 40956 ft 482 kts 45°
2026-05-07 03:27 5.06991 43.03017 40941 ft 480 kts 45°
2026-05-07 03:27 5.11635 43.07823 40944 ft 480 kts 45°
2026-05-07 03:28 5.16284 43.12636 40947 ft 480 kts 45°
2026-05-07 03:28 5.20933 43.17450 40942 ft 480 kts 45°
2026-05-07 03:29 5.25583 43.22265 40945 ft 480 kts 45°
2026-05-07 03:29 5.29451 43.26272 40943 ft 481 kts 45°
2026-05-07 03:30 5.34112 43.31100 40947 ft 482 kts 45°
2026-05-07 03:30 5.38773 43.35930 40950 ft 482 kts 45°
2026-05-07 03:31 5.43431 43.40759 40945 ft 482 kts 45°
2026-05-07 03:31 5.48098 43.45597 40937 ft 483 kts 45°
2026-05-07 03:32 5.52773 43.50445 40945 ft 484 kts 45°
2026-05-07 03:32 5.57461 43.55308 40951 ft 485 kts 45°
2026-05-07 03:33 5.62149 43.60171 40950 ft 485 kts 45°
2026-05-07 03:33 5.66839 43.65039 40949 ft 485 kts 45°
2026-05-07 03:34 5.71530 43.69922 40954 ft 486 kts 45°
2026-05-07 03:34 5.76222 43.74816 40946 ft 485 kts 45°
2026-05-07 03:35 5.80906 43.79695 40952 ft 485 kts 46°
2026-05-07 03:35 5.85590 43.84581 40945 ft 486 kts 46°
2026-05-07 03:36 5.90283 43.89475 40941 ft 486 kts 46°
2026-05-07 03:36 5.94974 43.94369 40942 ft 486 kts 46°
2026-05-07 03:37 5.99635 43.99232 40947 ft 486 kts 46°
2026-05-07 03:37 6.04325 44.04127 40956 ft 486 kts 46°
2026-05-07 03:38 6.09013 44.09023 40950 ft 486 kts 46°
2026-05-07 03:38 6.13697 44.13914 40948 ft 486 kts 46°
2026-05-07 03:39 6.18384 44.18810 40963 ft 486 kts 46°
2026-05-07 03:39 6.23071 44.23707 40961 ft 486 kts 46°
2026-05-07 03:40 6.27766 44.28615 40956 ft 487 kts 46°
2026-05-07 03:40 6.32459 44.33521 40962 ft 486 kts 46°
2026-05-07 03:41 6.37145 44.38422 40963 ft 486 kts 46°
2026-05-07 03:41 6.41830 44.43321 40959 ft 486 kts 46°
2026-05-07 03:42 6.46521 44.48231 40953 ft 487 kts 46°
2026-05-07 03:42 6.51221 44.53150 40964 ft 487 kts 46°
2026-05-07 03:43 6.55904 44.58053 40965 ft 485 kts 46°
2026-05-07 03:43 6.60576 44.62945 40964 ft 485 kts 46°
2026-05-07 03:44 6.65253 44.67845 40962 ft 486 kts 46°
2026-05-07 03:44 6.69940 44.72757 40964 ft 487 kts 46°
2026-05-07 03:45 6.74625 44.77675 40967 ft 487 kts 46°
2026-05-07 03:45 6.79289 44.82589 40965 ft 484 kts 46°
2026-05-07 03:46 6.83938 44.87477 40960 ft 483 kts 46°
2026-05-07 03:46 6.88584 44.92371 40960 ft 484 kts 46°
2026-05-07 03:47 6.93244 44.97277 40965 ft 485 kts 46°
2026-05-07 03:47 6.97915 45.02198 40955 ft 487 kts 47°
2026-05-07 03:48 7.02595 45.07129 40968 ft 486 kts 46°
2026-05-07 03:48 7.07237 45.12022 40958 ft 486 kts 46°
2026-05-07 03:49 7.11912 45.16952 40962 ft 486 kts 46°
2026-05-07 03:49 7.16583 45.21877 40958 ft 487 kts 47°
2026-05-07 03:50 7.21255 45.26808 40951 ft 487 kts 46°
2026-05-07 03:50 7.25926 45.31737 40944 ft 486 kts 46°
2026-05-07 03:51 7.30597 45.36668 40948 ft 486 kts 47°
2026-05-07 03:51 7.35272 45.41605 40948 ft 488 kts 47°
2026-05-07 03:52 7.39970 45.46568 40950 ft 489 kts 47°
2026-05-07 03:52 7.44663 45.51528 40943 ft 489 kts 47°
2026-05-07 03:53 7.49354 45.56487 40947 ft 489 kts 47°
2026-05-07 03:53 7.54044 45.61446 40949 ft 489 kts 47°
2026-05-07 03:54 7.58738 45.66411 40942 ft 489 kts 47°
2026-05-07 03:54 7.63432 45.71378 40945 ft 490 kts 47°
2026-05-07 03:55 7.68129 45.76350 40944 ft 490 kts 47°
2026-05-07 03:55 7.72778 45.81291 40944 ft 488 kts 47°
2026-05-07 03:56 7.77450 45.86256 40947 ft 487 kts 47°
2026-05-07 03:56 7.82115 45.91215 40948 ft 488 kts 47°
2026-05-07 03:57 7.86789 45.96186 40954 ft 489 kts 47°
2026-05-07 03:57 7.91471 46.01166 40956 ft 489 kts 47°
2026-05-07 03:58 7.96149 46.06145 40952 ft 490 kts 47°
2026-05-07 03:58 8.00839 46.11137 40957 ft 490 kts 47°
2026-05-07 03:59 8.05533 46.16137 40959 ft 491 kts 47°
2026-05-07 03:59 8.10226 46.21135 40961 ft 490 kts 47°
2026-05-07 04:00 8.14899 46.26115 40962 ft 487 kts 47°
2026-05-07 04:00 8.19524 46.31047 40959 ft 487 kts 47°
2026-05-07 04:01 8.24197 46.36003 40965 ft 488 kts 46°
2026-05-07 04:01 8.28937 46.40916 40964 ft 489 kts 46°
2026-05-07 04:02 8.33658 46.45876 40971 ft 491 kts 46°
2026-05-07 04:02 8.38404 46.50831 40973 ft 490 kts 46°
2026-05-07 04:03 8.43131 46.55783 40976 ft 489 kts 46°
2026-05-07 04:03 8.47853 46.60725 40973 ft 488 kts 46°
2026-05-07 04:04 8.52556 46.65651 40972 ft 487 kts 46°
2026-05-07 04:04 8.57256 46.70576 40965 ft 487 kts 46°
2026-05-07 04:05 8.61960 46.75506 40960 ft 488 kts 46°
2026-05-07 04:05 8.66670 46.80445 40967 ft 488 kts 46°
2026-05-07 04:06 8.71383 46.85390 40970 ft 489 kts 46°
2026-05-07 04:06 8.76101 46.90340 40970 ft 489 kts 46°
2026-05-07 04:07 8.80822 46.95297 40971 ft 490 kts 46°
2026-05-07 04:07 8.85514 47.00224 40966 ft 489 kts 46°
2026-05-07 04:08 8.90234 47.05183 40964 ft 490 kts 46°
2026-05-07 04:08 8.94967 47.10157 40966 ft 491 kts 46°
2026-05-07 04:09 8.99709 47.15144 40969 ft 491 kts 46°
2026-05-07 04:09 9.04439 47.20119 40963 ft 490 kts 46°
2026-05-07 04:10 9.09156 47.25083 40961 ft 489 kts 46°
2026-05-07 04:10 9.13864 47.30039 40952 ft 487 kts 46°
2026-05-07 04:11 9.18555 47.34979 40957 ft 487 kts 46°
2026-05-07 04:11 9.23383 47.39817 40971 ft 490 kts 45°
2026-05-07 04:12 9.28203 47.44711 40975 ft 491 kts 44°
2026-05-07 04:12 9.33064 47.49562 40977 ft 491 kts 45°
2026-05-07 04:13 9.37895 47.54444 40976 ft 491 kts 44°
2026-05-07 04:13 9.42741 47.59306 40980 ft 490 kts 45°
2026-05-07 04:14 9.47577 47.64182 40987 ft 490 kts 45°
2026-05-07 04:14 9.52415 47.69049 40982 ft 490 kts 44°
2026-05-07 04:15 9.57256 47.73928 40987 ft 491 kts 44°
2026-05-07 04:15 9.62104 47.78813 40989 ft 491 kts 44°
2026-05-07 04:16 9.66951 47.83701 40993 ft 491 kts 45°
2026-05-07 04:16 9.71800 47.88592 40993 ft 491 kts 45°
2026-05-07 04:17 9.76611 47.93447 40994 ft 491 kts 45°
2026-05-07 04:17 9.81456 47.98339 40998 ft 492 kts 45°
2026-05-07 04:18 9.86304 48.03235 40992 ft 492 kts 45°
2026-05-07 04:18 9.91156 48.08138 40998 ft 492 kts 45°
2026-05-07 04:19 9.95219 48.12246 41000 ft 492 kts 45°
2026-05-07 04:19 10.00041 48.17123 41001 ft 492 kts 45°
2026-05-07 04:20 10.04890 48.22028 41002 ft 492 kts 45°
2026-05-07 04:20 10.09735 48.26932 41003 ft 492 kts 45°
2026-05-07 04:21 10.16996 48.34286 41008 ft 491 kts 45°
2026-05-07 04:21 10.21828 48.39183 41009 ft 490 kts 45°
2026-05-07 04:22 10.26650 48.44072 41001 ft 489 kts 45°
2026-05-07 04:22 10.31462 48.48952 40989 ft 488 kts 45°
2026-05-07 04:23 10.36272 48.53832 40986 ft 490 kts 45°
2026-05-07 04:23 10.41099 48.58734 40991 ft 491 kts 45°
2026-05-07 04:24 10.45935 48.63646 40996 ft 492 kts 45°
2026-05-07 04:24 10.50784 48.68572 40991 ft 493 kts 45°
2026-05-07 04:25 10.55631 48.73500 40993 ft 493 kts 45°
2026-05-07 04:25 10.60474 48.78426 40986 ft 492 kts 45°
2026-05-07 04:26 10.65316 48.83354 40979 ft 492 kts 45°
2026-05-07 04:26 10.70154 48.88279 40966 ft 492 kts 45°
2026-05-07 04:27 10.74989 48.93204 40961 ft 492 kts 45°
2026-05-07 04:27 10.79789 48.98095 40961 ft 492 kts 45°
2026-05-07 04:28 10.84620 49.03020 40936 ft 492 kts 45°
2026-05-07 04:28 10.89468 49.07966 40943 ft 494 kts 45°
2026-05-07 04:29 10.94335 49.12932 40936 ft 497 kts 46°
2026-05-07 04:29 10.99213 49.17913 40913 ft 496 kts 45°
2026-05-07 04:30 11.04082 49.22887 40914 ft 496 kts 45°
2026-05-07 04:30 11.08951 49.27864 40916 ft 496 kts 45°
2026-05-07 04:31 11.13815 49.32838 40899 ft 495 kts 45°
2026-05-07 04:31 11.18665 49.37800 40909 ft 493 kts 45°
2026-05-07 04:32 11.23495 49.42743 40886 ft 492 kts 45°
2026-05-07 04:32 11.28325 49.47690 40879 ft 493 kts 45°
2026-05-07 04:33 11.33161 49.52645 40903 ft 493 kts 45°
2026-05-07 04:33 11.38002 49.57608 40887 ft 494 kts 45°
2026-05-07 04:34 11.42640 49.62747 40894 ft 493 kts 48°
2026-05-07 04:34 11.47265 49.67905 40899 ft 492 kts 48°
2026-05-07 04:35 11.51838 49.73098 40871 ft 492 kts 48°
2026-05-07 04:35 11.56450 49.78284 40869 ft 495 kts 48°
2026-05-07 04:36 11.61076 49.83518 40871 ft 497 kts 48°
2026-05-07 04:36 11.65706 49.88745 40874 ft 496 kts 48°
2026-05-07 04:37 11.70324 49.93968 40871 ft 496 kts 48°
2026-05-07 04:37 11.74945 49.99194 40881 ft 495 kts 48°
2026-05-07 04:38 11.79541 50.04396 40876 ft 493 kts 48°
2026-05-07 04:38 11.84098 50.09557 40872 ft 493 kts 48°
2026-05-07 04:39 11.88688 50.14756 40872 ft 493 kts 48°
2026-05-07 04:39 11.93277 50.19959 40873 ft 493 kts 48°
2026-05-07 04:40 11.97863 50.25160 40873 ft 492 kts 48°
2026-05-07 04:40 12.02446 50.30362 40874 ft 493 kts 48°
2026-05-07 04:41 12.07031 50.35568 40879 ft 493 kts 48°
2026-05-07 04:41 12.11615 50.40776 40878 ft 493 kts 48°
2026-05-07 04:42 12.16196 50.45983 40878 ft 492 kts 48°
2026-05-07 04:42 12.20986 50.50977 40874 ft 492 kts 46°
2026-05-07 04:43 12.25779 50.55994 40876 ft 494 kts 45°
2026-05-07 04:43 12.30623 50.60995 40885 ft 495 kts 46°
2026-05-07 04:44 12.35446 50.66022 40884 ft 494 kts 45°
2026-05-07 04:44 12.40270 50.71026 40878 ft 494 kts 45°
2026-05-07 04:45 12.45078 50.76032 40878 ft 493 kts 45°
2026-05-07 04:45 12.49885 50.81032 40874 ft 492 kts 45°
2026-05-07 04:46 12.54685 50.86031 40871 ft 492 kts 46°
2026-05-07 04:46 12.59503 50.91049 40869 ft 497 kts 46°
2026-05-07 04:47 12.64325 50.96075 40876 ft 498 kts 46°
2026-05-07 04:47 12.69174 51.01134 40881 ft 498 kts 46°
2026-05-07 04:48 12.74023 51.06194 40886 ft 498 kts 46°
2026-05-07 04:48 12.78866 51.11251 40887 ft 497 kts 46°
2026-05-07 04:49 12.83709 51.16312 40884 ft 498 kts 46°
2026-05-07 04:49 12.88556 51.21379 40889 ft 498 kts 46°
2026-05-07 04:50 12.93403 51.26450 40890 ft 498 kts 46°
2026-05-07 04:50 12.98254 51.31527 40887 ft 498 kts 46°
2026-05-07 04:51 13.03106 51.36608 40893 ft 498 kts 46°
2026-05-07 04:51 13.07956 51.41692 40893 ft 498 kts 46°
2026-05-07 04:52 13.12808 51.46779 40893 ft 498 kts 46°
2026-05-07 04:52 13.17659 51.51869 40896 ft 498 kts 46°
2026-05-07 04:53 13.22501 51.56952 40891 ft 498 kts 46°
2026-05-07 04:53 13.27349 51.62045 40890 ft 499 kts 46°
2026-05-07 04:54 13.32204 51.67148 40896 ft 499 kts 46°
2026-05-07 04:54 13.37052 51.72248 40897 ft 499 kts 46°
2026-05-07 04:55 13.41865 51.77313 40901 ft 500 kts 46°
2026-05-07 04:55 13.46718 51.82423 40902 ft 499 kts 46°
2026-05-07 04:56 13.51557 51.87523 40900 ft 499 kts 46°
2026-05-07 04:56 13.56398 51.92620 40904 ft 499 kts 45°
2026-05-07 04:57 13.61297 51.97674 40909 ft 499 kts 45°
2026-05-07 04:57 13.66170 52.02752 40910 ft 499 kts 45°
2026-05-07 04:58 13.71053 52.07821 40910 ft 499 kts 45°
2026-05-07 04:58 13.75929 52.12896 40911 ft 498 kts 46°
2026-05-07 04:59 13.80803 52.17967 40913 ft 498 kts 46°
2026-05-07 04:59 13.85680 52.23046 40911 ft 499 kts 46°
2026-05-07 05:00 13.90555 52.28127 40912 ft 498 kts 46°
2026-05-07 05:00 13.95425 52.33205 40914 ft 498 kts 46°
2026-05-07 05:01 14.00296 52.38288 40917 ft 498 kts 46°
2026-05-07 05:01 14.05164 52.43370 40915 ft 498 kts 46°
2026-05-07 05:02 14.10032 52.48456 40916 ft 498 kts 46°
2026-05-07 05:02 14.14900 52.53546 40919 ft 499 kts 46°
2026-05-07 05:03 14.19763 52.58633 40917 ft 498 kts 46°
2026-05-07 05:03 14.24620 52.63718 40921 ft 498 kts 46°
2026-05-07 05:04 14.29482 52.68810 40919 ft 499 kts 46°
2026-05-07 05:04 14.34346 52.73909 40919 ft 499 kts 46°
2026-05-07 05:05 14.39204 52.79005 40921 ft 498 kts 46°
2026-05-07 05:05 14.44060 52.84101 40921 ft 498 kts 46°
2026-05-07 05:06 14.48090 52.88334 40919 ft 498 kts 46°
2026-05-07 05:06 14.52939 52.93429 40920 ft 498 kts 46°
2026-05-07 05:07 14.57788 52.98528 40922 ft 498 kts 46°
2026-05-07 05:07 14.62636 53.03629 40923 ft 496 kts 46°
2026-05-07 05:08 14.67811 53.08285 40923 ft 495 kts 31°
2026-05-07 05:08 14.73681 53.12017 40917 ft 496 kts 32°
2026-05-07 05:09 14.79560 53.15760 40915 ft 496 kts 32°
2026-05-07 05:09 14.85431 53.19508 40920 ft 496 kts 32°
2026-05-07 05:10 14.91272 53.23231 40916 ft 496 kts 32°
2026-05-07 05:10 14.97179 53.27005 40915 ft 496 kts 32°
2026-05-07 05:11 15.03059 53.30760 40917 ft 497 kts 32°
2026-05-07 05:11 15.08954 53.34530 40915 ft 499 kts 32°
2026-05-07 05:12 15.14854 53.38303 40920 ft 498 kts 32°
2026-05-07 05:12 15.20742 53.42073 40917 ft 497 kts 32°
2026-05-07 05:13 15.26621 53.45839 40916 ft 497 kts 32°
2026-05-07 05:13 15.32458 53.49580 40911 ft 496 kts 32°
2026-05-07 05:14 15.38323 53.53342 40908 ft 496 kts 32°
2026-05-07 05:14 15.44181 53.57103 40905 ft 495 kts 32°
2026-05-07 05:15 15.49968 53.60975 40905 ft 495 kts 33°
2026-05-07 05:15 15.55767 53.64837 40906 ft 496 kts 33°
2026-05-07 05:16 15.61583 53.68710 40914 ft 498 kts 33°
2026-05-07 05:16 15.67426 53.72615 40919 ft 500 kts 33°
2026-05-07 05:17 15.73273 53.76513 40918 ft 499 kts 33°
2026-05-07 05:17 15.79094 53.80406 40909 ft 497 kts 33°
2026-05-07 05:18 15.84900 53.84285 40905 ft 496 kts 33°
2026-05-07 05:18 15.90712 53.88164 40908 ft 497 kts 32°
2026-05-07 05:19 15.96578 53.92007 40914 ft 500 kts 32°
2026-05-07 05:19 16.02455 53.95900 40916 ft 501 kts 32°
2026-05-07 05:20 16.08338 53.99778 40913 ft 500 kts 32°
2026-05-07 05:20 16.14202 54.03657 40910 ft 499 kts 32°
2026-05-07 05:21 16.22983 54.09464 40904 ft 498 kts 32°
2026-05-07 05:22 16.28827 54.13336 40893 ft 498 kts 32°
2026-05-07 05:22 16.34698 54.17225 40902 ft 502 kts 32°
2026-05-07 05:23 16.40549 54.21105 40901 ft 502 kts 32°
2026-05-07 05:23 16.46434 54.25010 40898 ft 501 kts 32°
2026-05-07 05:24 16.52303 54.28907 40888 ft 500 kts 32°
2026-05-07 05:24 16.58157 54.32798 40887 ft 498 kts 32°
2026-05-07 05:25 16.64006 54.36687 40883 ft 500 kts 32°
2026-05-07 05:25 16.69882 54.40597 40883 ft 502 kts 32°
2026-05-07 05:26 16.75778 54.44524 40887 ft 503 kts 32°
2026-05-07 05:26 16.81665 54.48448 40901 ft 502 kts 32°
2026-05-07 05:27 16.87539 54.52366 40898 ft 500 kts 32°
2026-05-07 05:27 16.93389 54.56270 40915 ft 499 kts 32°
2026-05-07 05:28 16.99248 54.60181 40914 ft 500 kts 32°
2026-05-07 05:28 17.05120 54.64104 40921 ft 502 kts 32°
2026-05-07 05:29 17.11009 54.68041 40932 ft 502 kts 32°
2026-05-07 05:29 17.16892 54.71978 40928 ft 502 kts 32°
2026-05-07 05:30 17.22766 54.75911 40927 ft 501 kts 32°
2026-05-07 05:30 17.28566 54.79936 40951 ft 499 kts 36°
2026-05-07 05:31 17.34224 54.84170 40933 ft 500 kts 35°
2026-05-07 05:31 17.39874 54.88423 40937 ft 500 kts 36°
2026-05-07 05:32 17.45518 54.92672 40925 ft 500 kts 36°
2026-05-07 05:32 17.51158 54.96915 40925 ft 499 kts 36°
2026-05-07 05:33 17.56790 55.01163 40920 ft 498 kts 36°
2026-05-07 05:33 17.62396 55.05388 40906 ft 503 kts 36°
2026-05-07 05:34 17.68094 55.09691 40921 ft 505 kts 36°
2026-05-07 05:34 17.73799 55.14000 40911 ft 504 kts 36°
2026-05-07 05:35 17.79488 55.18301 40909 ft 504 kts 36°
2026-05-07 05:35 17.85183 55.22613 40910 ft 505 kts 36°
2026-05-07 05:36 17.90879 55.26927 40909 ft 504 kts 36°
2026-05-07 05:36 17.96572 55.31243 40908 ft 505 kts 36°
2026-05-07 05:37 18.02280 55.35574 40904 ft 506 kts 36°
2026-05-07 05:37 18.07992 55.39911 40913 ft 506 kts 35°
2026-05-07 05:38 18.13883 55.43957 40906 ft 505 kts 33°
2026-05-07 05:38 18.19777 55.48022 40917 ft 506 kts 32°
2026-05-07 05:39 18.25701 55.52057 40918 ft 506 kts 33°
2026-05-07 05:39 18.31569 55.56094 40914 ft 502 kts 33°
2026-05-07 05:40 18.37436 55.60109 40919 ft 503 kts 33°
2026-05-07 05:40 18.43309 55.64145 40921 ft 504 kts 33°
2026-05-07 05:41 18.49179 55.68176 40923 ft 503 kts 33°
2026-05-07 05:41 18.55051 55.72214 40922 ft 504 kts 33°
2026-05-07 05:42 18.60926 55.76257 40927 ft 504 kts 33°
2026-05-07 05:42 18.66793 55.80298 40927 ft 503 kts 33°
2026-05-07 05:43 18.72638 55.84327 40922 ft 502 kts 33°
2026-05-07 05:43 18.78486 55.88361 40920 ft 503 kts 33°
2026-05-07 05:44 18.84337 55.92402 40923 ft 503 kts 33°
2026-05-07 05:44 18.90148 55.96417 40924 ft 503 kts 33°
2026-05-07 05:45 18.96045 56.00387 40928 ft 503 kts 25°
2026-05-07 05:45 18.99285 56.01745 40941 ft 501 kts 13°
2026-05-07 05:45 19.02658 56.02673 40922 ft 502 kts 13°
2026-05-07 05:46 19.09430 56.04468 40932 ft 501 kts 13°
2026-05-07 05:46 19.16191 56.06289 40920 ft 501 kts 13°
2026-05-07 05:47 19.22960 56.08101 40921 ft 501 kts 13°
2026-05-07 05:47 19.29722 56.09918 40921 ft 501 kts 13°
2026-05-07 05:48 19.36482 56.11734 40923 ft 501 kts 13°
2026-05-07 05:48 19.43246 56.13553 40918 ft 501 kts 13°
2026-05-07 05:49 19.50013 56.15375 40919 ft 502 kts 13°
2026-05-07 05:49 19.56778 56.17198 40916 ft 501 kts 13°
2026-05-07 05:50 19.63536 56.19020 40916 ft 501 kts 13°
2026-05-07 05:50 19.70285 56.20842 40915 ft 500 kts 13°
2026-05-07 05:51 19.77019 56.22661 40909 ft 499 kts 13°
2026-05-07 05:51 19.82619 56.24175 40912 ft 499 kts 13°
2026-05-07 05:52 19.89370 56.26001 40914 ft 502 kts 13°
2026-05-07 05:52 19.96165 56.27793 40919 ft 503 kts
2026-05-07 05:53 20.03118 56.28109 40919 ft 501 kts 358°
2026-05-07 05:53 20.10090 56.28101 40920 ft 501 kts 358°
2026-05-07 05:54 20.17060 56.28132 40919 ft 501 kts 358°
2026-05-07 05:54 20.24028 56.28142 40919 ft 501 kts 358°
2026-05-07 05:55 20.30999 56.28163 40917 ft 501 kts 358°
2026-05-07 05:55 20.37970 56.28178 40917 ft 501 kts 358°
2026-05-07 05:56 20.44942 56.28196 40920 ft 501 kts 358°
2026-05-07 05:56 20.51871 56.28213 40915 ft 501 kts 358°
2026-05-07 05:57 20.58804 56.27763 40912 ft 499 kts 350°
2026-05-07 05:57 20.65686 56.26765 40921 ft 499 kts 350°
2026-05-07 05:58 20.72558 56.25772 40918 ft 498 kts 350°
2026-05-07 05:58 20.79422 56.24777 40919 ft 497 kts 350°
2026-05-07 05:59 20.86276 56.23783 40917 ft 497 kts 350°
2026-05-07 05:59 20.93118 56.22790 40924 ft 496 kts 350°
2026-05-07 06:00 20.99960 56.21796 40917 ft 496 kts 349°
2026-05-07 06:00 21.06804 56.20800 40917 ft 497 kts 349°
2026-05-07 06:01 21.13657 56.19803 40923 ft 497 kts 350°
2026-05-07 06:01 21.20521 56.18803 40923 ft 498 kts 349°
2026-05-07 06:02 21.27392 56.17801 40923 ft 498 kts 349°
2026-05-07 06:02 21.34258 56.16795 40921 ft 498 kts 349°
2026-05-07 06:03 21.41120 56.15788 40921 ft 497 kts 349°
2026-05-07 06:03 21.47975 56.14782 40919 ft 497 kts 349°
2026-05-07 06:04 21.54781 56.13781 40922 ft 497 kts 349°
2026-05-07 06:04 21.61626 56.12775 40921 ft 497 kts 349°
2026-05-07 06:05 21.68472 56.11766 40921 ft 496 kts 349°
2026-05-07 06:05 21.75313 56.10758 40928 ft 496 kts 349°
2026-05-07 06:06 21.82152 56.09749 40926 ft 496 kts 349°
2026-05-07 06:06 21.88986 56.08740 40928 ft 496 kts 349°
2026-05-07 06:07 21.95816 56.07730 40927 ft 495 kts 349°
2026-05-07 06:07 22.02643 56.06720 40930 ft 495 kts 349°
2026-05-07 06:08 22.06431 56.06160 40927 ft 494 kts 349°
2026-05-07 06:08 22.13243 56.05152 40927 ft 495 kts 349°
2026-05-07 06:09 22.20076 56.04139 40932 ft 496 kts 349°
2026-05-07 06:09 22.26925 56.03124 40930 ft 497 kts 349°
2026-05-07 06:10 22.33768 56.02109 40926 ft 495 kts 349°
2026-05-07 06:10 22.40584 56.01097 40927 ft 494 kts 349°
2026-05-07 06:11 22.47387 56.00096 40930 ft 494 kts 349°
2026-05-07 06:11 22.54161 55.99093 40933 ft 495 kts 349°
2026-05-07 06:12 22.61036 55.98078 40935 ft 496 kts 349°
2026-05-07 06:12 22.67826 55.97072 40936 ft 496 kts 349°
2026-05-07 06:13 22.74670 55.96058 40935 ft 496 kts 349°
2026-05-07 06:13 22.81516 55.95043 40935 ft 496 kts 349°
2026-05-07 06:14 22.88351 55.94020 40938 ft 496 kts 349°
2026-05-07 06:14 22.95180 55.92998 40921 ft 494 kts 349°
2026-05-07 06:14 22.98572 55.92491 40280 ft 494 kts 349°
2026-05-07 06:15 23.01984 55.91978 39570 ft 496 kts 349°
2026-05-07 06:15 23.05407 55.91465 38950 ft 496 kts 349°
2026-05-07 06:15 23.08826 55.90950 38272 ft 497 kts 349°
2026-05-07 06:15 23.12243 55.90435 37605 ft 495 kts 349°
2026-05-07 06:16 23.15651 55.89921 36921 ft 494 kts 349°
2026-05-07 06:16 23.19053 55.89408 36242 ft 493 kts 349°
2026-05-07 06:16 23.22457 55.88895 35522 ft 494 kts 349°
2026-05-07 06:16 23.25861 55.88380 34780 ft 495 kts 349°
2026-05-07 06:17 23.29279 55.87864 34019 ft 497 kts 349°
2026-05-07 06:17 23.32712 55.87345 33183 ft 498 kts 349°
2026-05-07 06:17 23.36149 55.86825 32345 ft 499 kts 349°
2026-05-07 06:17 23.39595 55.86304 31470 ft 501 kts 349°
2026-05-07 06:18 23.43052 55.85781 30568 ft 502 kts 349°
2026-05-07 06:18 23.46513 55.85257 29634 ft 502 kts 349°
2026-05-07 06:18 23.49950 55.84674 28767 ft 497 kts 345°
2026-05-07 06:18 23.53211 55.83544 27907 ft 489 kts 334°
2026-05-07 06:19 23.56201 55.81837 27051 ft 482 kts 324°
2026-05-07 06:19 23.58839 55.79624 26210 ft 476 kts 315°
2026-05-07 06:19 23.61203 55.77117 25376 ft 473 kts 314°
2026-05-07 06:19 23.63540 55.74610 24550 ft 470 kts 313°
2026-05-07 06:20 23.65850 55.72105 23744 ft 468 kts 313°
2026-05-07 06:20 23.68153 55.69612 22883 ft 464 kts 314°
2026-05-07 06:20 23.70438 55.67153 22092 ft 458 kts 314°
2026-05-07 06:20 23.72663 55.64756 21323 ft 453 kts 313°
2026-05-07 06:21 23.74885 55.62351 20557 ft 447 kts 314°
2026-05-07 06:21 23.77080 55.59974 19804 ft 442 kts 314°
2026-05-07 06:21 23.79254 55.57623 19074 ft 438 kts 315°
2026-05-07 06:21 23.81406 55.55295 18345 ft 433 kts 315°
2026-05-07 06:22 23.83289 55.52761 17589 ft 428 kts 302°
2026-05-07 06:22 23.85822 55.46979 16191 ft 416 kts 294°
2026-05-07 06:22 23.86996 55.44111 15639 ft 409 kts 294°
2026-05-07 06:23 23.88135 55.41346 15497 ft 389 kts 295°
2026-05-07 06:23 23.89226 55.38713 15376 ft 371 kts 295°
2026-05-07 06:23 23.90265 55.36200 15237 ft 355 kts 295°
2026-05-07 06:23 23.91258 55.33790 15107 ft 340 kts 295°
2026-05-07 06:24 23.92213 55.31474 14898 ft 330 kts 296°
2026-05-07 06:24 23.93291 55.29298 14900 ft 326 kts 298°
2026-05-07 06:24 23.94307 55.27060 14901 ft 331 kts 296°
2026-05-07 06:24 23.95327 55.24786 14894 ft 335 kts 297°
2026-05-07 06:25 23.96404 55.22518 14780 ft 338 kts 298°
2026-05-07 06:25 23.97498 55.20243 14560 ft 337 kts 298°
2026-05-07 06:25 23.98568 55.17977 14345 ft 335 kts 298°
2026-05-07 06:25 23.99626 55.15714 14109 ft 333 kts 298°
2026-05-07 06:26 24.00686 55.13461 13888 ft 333 kts 298°
2026-05-07 06:26 24.01746 55.11216 13668 ft 332 kts 298°
2026-05-07 06:26 24.03015 55.09130 13422 ft 328 kts 313°
2026-05-07 06:26 24.04488 55.07230 13212 ft 327 kts 311°
2026-05-07 06:27 24.05922 55.05305 12982 ft 326 kts 311°
2026-05-07 06:27 24.07360 55.03395 12761 ft 324 kts 311°
2026-05-07 06:27 24.08783 55.01529 12559 ft 322 kts 311°
2026-05-07 06:27 24.10213 54.99650 12343 ft 321 kts 311°
2026-05-07 06:28 24.11636 54.97770 12128 ft 320 kts 311°
2026-05-07 06:28 24.12960 54.95827 11919 ft 317 kts 309°
2026-05-07 06:28 24.14355 54.93930 11698 ft 315 kts 312°
2026-05-07 06:28 24.15728 54.92110 11492 ft 313 kts 311°
2026-05-07 06:29 24.17063 54.90239 11284 ft 311 kts 310°
2026-05-07 06:29 24.18376 54.88364 11065 ft 309 kts 310°
2026-05-07 06:29 24.19697 54.86510 10878 ft 308 kts 310°
2026-05-07 06:29 24.21016 54.84676 10667 ft 306 kts 310°
2026-05-07 06:30 24.22327 54.82841 10467 ft 305 kts 310°
2026-05-07 06:30 24.23627 54.81015 10257 ft 303 kts 310°
2026-05-07 06:30 24.24907 54.79216 10053 ft 294 kts 310°
2026-05-07 06:30 24.26150 54.77473 9857 ft 287 kts 310°
2026-05-07 06:31 24.27374 54.75759 9658 ft 285 kts 310°
2026-05-07 06:31 24.28590 54.74053 9453 ft 282 kts 310°
2026-05-07 06:31 24.29794 54.72362 9277 ft 281 kts 310°
2026-05-07 06:31 24.30998 54.70671 9079 ft 280 kts 310°
2026-05-07 06:32 24.32191 54.68993 8899 ft 278 kts 310°
2026-05-07 06:32 24.33373 54.67331 8862 ft 275 kts 310°
2026-05-07 06:32 24.34555 54.65669 8866 ft 277 kts 310°
2026-05-07 06:32 24.35742 54.64000 8867 ft 278 kts 310°
2026-05-07 06:33 24.36929 54.62329 8864 ft 278 kts 310°
2026-05-07 06:33 24.38118 54.60655 8868 ft 279 kts 310°
2026-05-07 06:33 24.39307 54.58979 8865 ft 278 kts 310°
2026-05-07 06:33 24.40498 54.57303 8869 ft 278 kts 310°
2026-05-07 06:34 24.41686 54.55627 8867 ft 278 kts 310°
2026-05-07 06:34 24.42873 54.53954 8868 ft 278 kts 310°
2026-05-07 06:34 24.44141 54.52359 8841 ft 276 kts 324°
2026-05-07 06:34 24.45829 54.51436 8863 ft 271 kts 348°
2026-05-07 06:35 24.47696 54.51348 8873 ft 270 kts 11°
2026-05-07 06:35 24.49425 54.52098 8866 ft 270 kts 34°
2026-05-07 06:35 24.50732 54.53567 8864 ft 272 kts 58°
2026-05-07 06:35 24.51380 54.55522 8865 ft 276 kts 81°
2026-05-07 06:36 24.51227 54.57624 8870 ft 281 kts 105°
2026-05-07 06:36 24.50282 54.59505 8874 ft 285 kts 124°
2026-05-07 06:36 24.49073 54.61238 8867 ft 286 kts 126°
2026-05-07 06:36 24.47837 54.62939 8871 ft 285 kts 126°
2026-05-07 06:37 24.46609 54.64654 8868 ft 285 kts 126°
2026-05-07 06:37 24.45391 54.66366 8870 ft 284 kts 128°
2026-05-07 06:37 24.43817 54.67680 8869 ft 289 kts 154°
2026-05-07 06:37 24.41845 54.68126 8872 ft 294 kts 181°
2026-05-07 06:38 24.39876 54.67559 8877 ft 296 kts 209°
2026-05-07 06:38 24.38344 54.66096 8869 ft 293 kts 237°
2026-05-07 06:38 24.37567 54.64072 8869 ft 289 kts 263°
2026-05-07 06:38 24.37664 54.61909 8872 ft 283 kts 289°
2026-05-07 06:39 24.38567 54.60022 8874 ft 279 kts 309°
2026-05-07 06:39 24.39746 54.58328 8874 ft 280 kts 310°
2026-05-07 06:39 24.40545 54.57220 8867 ft 280 kts 310°
2026-05-07 06:39 24.41748 54.55550 8871 ft 279 kts 310°
2026-05-07 06:40 24.42938 54.53870 8865 ft 279 kts 310°
2026-05-07 06:40 24.44222 54.52291 8858 ft 276 kts 326°
2026-05-07 06:40 24.45935 54.51407 8860 ft 273 kts 349°
2026-05-07 06:40 24.47804 54.51369 8864 ft 269 kts 12°
2026-05-07 06:41 24.49515 54.52166 8867 ft 269 kts 36°
2026-05-07 06:41 24.50787 54.53668 8867 ft 272 kts 59°
2026-05-07 06:41 24.51394 54.55639 8865 ft 277 kts 82°
2026-05-07 06:41 24.51192 54.57739 8875 ft 281 kts 107°
2026-05-07 06:42 24.50210 54.59601 8877 ft 285 kts 125°
2026-05-07 06:42 24.49000 54.61332 8867 ft 286 kts 126°
2026-05-07 06:42 24.47767 54.63038 8873 ft 285 kts 126°
2026-05-07 06:42 24.46543 54.64749 8872 ft 285 kts 126°
2026-05-07 06:43 24.45320 54.66459 8866 ft 284 kts 128°
2026-05-07 06:43 24.43720 54.67729 8873 ft 290 kts 155°
2026-05-07 06:43 24.41730 54.68121 8870 ft 295 kts 183°
2026-05-07 06:43 24.39774 54.67499 8873 ft 295 kts 211°
2026-05-07 06:44 24.38281 54.66000 8862 ft 292 kts 238°
2026-05-07 06:44 24.37549 54.63952 8869 ft 289 kts 264°
2026-05-07 06:44 24.37695 54.61796 8872 ft 283 kts 290°
2026-05-07 06:44 24.38629 54.59933 8875 ft 279 kts 309°
2026-05-07 06:45 24.39811 54.58242 8872 ft 279 kts 310°
2026-05-07 06:45 24.41014 54.56572 8869 ft 279 kts 310°
2026-05-07 06:45 24.42212 54.54896 8867 ft 279 kts 310°
2026-05-07 06:45 24.43405 54.53212 8864 ft 279 kts 311°
2026-05-07 06:46 24.44861 54.51859 8859 ft 275 kts 335°
2026-05-07 06:46 24.46675 54.51293 8869 ft 272 kts 358°
2026-05-07 06:46 24.48519 54.51595 8873 ft 269 kts 21°
2026-05-07 06:46 24.50087 54.52693 8870 ft 269 kts 44°
2026-05-07 06:47 24.51118 54.54412 8870 ft 273 kts 68°
2026-05-07 06:47 24.51413 54.56474 8871 ft 278 kts 92°
2026-05-07 06:47 24.50885 54.58515 8874 ft 283 kts 117°
2026-05-07 06:47 24.49740 54.60289 8870 ft 286 kts 125°
2026-05-07 06:48 24.48516 54.62005 8870 ft 285 kts 126°
2026-05-07 06:48 24.47281 54.63713 8869 ft 285 kts 126°
2026-05-07 06:48 24.46063 54.65426 8863 ft 284 kts 125°
2026-05-07 06:48 24.44767 54.67063 8839 ft 287 kts 140°
2026-05-07 06:49 24.42997 54.68004 8866 ft 291 kts 166°
2026-05-07 06:49 24.40982 54.68014 8865 ft 293 kts 193°
2026-05-07 06:49 24.39159 54.67045 8867 ft 295 kts 221°
2026-05-07 06:49 24.37915 54.65296 8869 ft 291 kts 248°
2026-05-07 06:50 24.37501 54.63158 8874 ft 286 kts 274°
2026-05-07 06:50 24.37958 54.61072 8878 ft 281 kts 299°
2026-05-07 06:50 24.39057 54.59323 8873 ft 279 kts 310°
2026-05-07 06:50 24.40247 54.57641 8871 ft 279 kts 311°
2026-05-07 06:51 24.41446 54.55969 8868 ft 279 kts 310°
2026-05-07 06:51 24.42638 54.54291 8869 ft 279 kts 310°
2026-05-07 06:51 24.43857 54.52641 8863 ft 277 kts 318°
2026-05-07 06:51 24.45476 54.51559 8864 ft 273 kts 342°
2026-05-07 06:52 24.47340 54.51300 8869 ft 272 kts
2026-05-07 06:52 24.49126 54.51900 8868 ft 270 kts 30°
2026-05-07 06:52 24.50532 54.53248 8869 ft 271 kts 53°
2026-05-07 06:52 24.51315 54.55125 8866 ft 275 kts 76°
2026-05-07 06:53 24.51319 54.57227 8874 ft 280 kts 100°
2026-05-07 06:53 24.50504 54.59171 8870 ft 285 kts 123°
2026-05-07 06:53 24.49303 54.60912 8868 ft 286 kts 125°
2026-05-07 06:53 24.48069 54.62621 8869 ft 285 kts 126°
2026-05-07 06:54 24.46840 54.64330 8866 ft 285 kts 126°
2026-05-07 06:54 24.45627 54.66043 8863 ft 284 kts 126°
2026-05-07 06:54 24.44166 54.67493 8861 ft 289 kts 150°
2026-05-07 06:54 24.42236 54.68124 8871 ft 294 kts 177°
2026-05-07 06:55 24.40230 54.67746 8872 ft 295 kts 204°
2026-05-07 06:55 24.38589 54.66438 8867 ft 292 kts 231°
2026-05-07 06:55 24.37650 54.64494 8867 ft 290 kts 258°
2026-05-07 06:55 24.37577 54.62321 8871 ft 285 kts 284°
2026-05-07 06:56 24.38345 54.60359 8877 ft 280 kts 308°
2026-05-07 06:56 24.39518 54.58656 8871 ft 280 kts 310°
2026-05-07 06:56 24.40723 54.56975 8867 ft 280 kts 310°
2026-05-07 06:56 24.41925 54.55301 8868 ft 280 kts 310°
2026-05-07 06:57 24.43120 54.53613 8861 ft 280 kts 310°
2026-05-07 06:57 24.44467 54.52105 8851 ft 276 kts 330°
2026-05-07 06:57 24.46226 54.51345 8860 ft 270 kts 354°
2026-05-07 06:57 24.48093 54.51441 8865 ft 271 kts 17°
2026-05-07 06:58 24.49760 54.52369 8870 ft 270 kts 39°
2026-05-07 06:58 24.50935 54.53965 8870 ft 271 kts 62°
2026-05-07 06:58 24.51417 54.55969 8866 ft 277 kts 86°
2026-05-07 06:58 24.51087 54.58055 8868 ft 282 kts 111°
2026-05-07 06:59 24.50025 54.59877 8873 ft 285 kts 124°
2026-05-07 06:59 24.48810 54.61600 8871 ft 285 kts 126°
2026-05-07 06:59 24.47574 54.63305 8865 ft 286 kts 126°
2026-05-07 06:59 24.46351 54.65019 8867 ft 284 kts 126°
2026-05-07 07:00 24.45130 54.66692 8862 ft 284 kts 132°
2026-05-07 07:00 24.43455 54.67847 8866 ft 290 kts 159°
2026-05-07 07:00 24.41450 54.68097 8873 ft 294 kts 186°
2026-05-07 07:00 24.39546 54.67348 8872 ft 293 kts 214°
2026-05-07 07:01 24.38142 54.65763 8873 ft 292 kts 241°
2026-05-07 07:01 24.37519 54.63677 8877 ft 289 kts 268°
2026-05-07 07:01 24.37774 54.61533 8869 ft 283 kts 294°
2026-05-07 07:01 24.38778 54.59712 8877 ft 279 kts 310°
2026-05-07 07:02 24.39961 54.58024 8871 ft 279 kts 311°
2026-05-07 07:02 24.41169 54.56357 8865 ft 279 kts 311°
2026-05-07 07:02 24.42365 54.54682 8870 ft 279 kts 310°
2026-05-07 07:02 24.43558 54.53005 8867 ft 278 kts 313°
2026-05-07 07:03 24.45069 54.51748 8869 ft 272 kts 338°
2026-05-07 07:03 24.46900 54.51284 8870 ft 271 kts
2026-05-07 07:03 24.48729 54.51687 8877 ft 270 kts 24°
2026-05-07 07:03 24.50253 54.52880 8869 ft 271 kts 47°
2026-05-07 07:04 24.51199 54.54656 8863 ft 273 kts 71°
2026-05-07 07:04 24.51393 54.56730 8873 ft 277 kts 95°
2026-05-07 07:04 24.50770 54.58739 8871 ft 283 kts 120°
2026-05-07 07:04 24.49595 54.60485 8872 ft 285 kts 125°
2026-05-07 07:05 24.48372 54.62200 8865 ft 285 kts 126°
2026-05-07 07:05 24.47141 54.63911 8861 ft 286 kts 126°
2026-05-07 07:05 24.45925 54.65623 8866 ft 284 kts 125°
2026-05-07 07:05 24.44585 54.67211 8836 ft 287 kts 144°
2026-05-07 07:06 24.42747 54.68061 8863 ft 291 kts 170°
2026-05-07 07:06 24.40735 54.67945 8868 ft 293 kts 197°
2026-05-07 07:06 24.39515 54.67329 8870 ft 293 kts 214°
2026-05-07 07:06 24.38802 54.66689 8865 ft 293 kts 227°
2026-05-07 07:07 24.37738 54.64807 8871 ft 291 kts 254°
2026-05-07 07:07 24.37532 54.62639 8873 ft 286 kts 281°
2026-05-07 07:07 24.38187 54.60616 8875 ft 281 kts 306°
2026-05-07 07:07 24.39343 54.58901 8874 ft 280 kts 310°
2026-05-07 07:08 24.40544 54.57222 8871 ft 279 kts 311°
2026-05-07 07:08 24.41747 54.55550 8871 ft 279 kts 311°
2026-05-07 07:08 24.42940 54.53867 8867 ft 280 kts 310°
2026-05-07 07:08 24.44204 54.52306 8844 ft 275 kts 326°
2026-05-07 07:09 24.45904 54.51416 8862 ft 271 kts 349°
2026-05-07 07:09 24.47774 54.51363 8867 ft 272 kts 12°
2026-05-07 07:09 24.49496 54.52152 8868 ft 271 kts 36°
2026-05-07 07:09 24.50779 54.53654 8865 ft 272 kts 59°
2026-05-07 07:10 24.51388 54.55612 8870 ft 275 kts 82°
2026-05-07 07:10 24.51204 54.57700 8866 ft 280 kts 106°
2026-05-07 07:10 24.50240 54.59564 8875 ft 284 kts 124°
2026-05-07 07:10 24.49035 54.61290 8868 ft 285 kts 126°
2026-05-07 07:11 24.47798 54.62993 8869 ft 285 kts 126°
2026-05-07 07:11 24.46574 54.64703 8868 ft 284 kts 125°
2026-05-07 07:11 24.45359 54.66407 8868 ft 284 kts 128°
2026-05-07 07:11 24.43775 54.67703 8866 ft 288 kts 155°
2026-05-07 07:12 24.41809 54.68126 8873 ft 292 kts 182°
2026-05-07 07:12 24.39859 54.67551 8872 ft 294 kts 209°
2026-05-07 07:12 24.38332 54.66081 8870 ft 293 kts 236°
2026-05-07 07:12 24.37561 54.64048 8869 ft 290 kts 263°
2026-05-07 07:13 24.37672 54.61878 8869 ft 285 kts 290°
2026-05-07 07:13 24.38588 54.59987 8879 ft 281 kts 309°
2026-05-07 07:13 24.39773 54.58278 8873 ft 281 kts 310°
2026-05-07 07:13 24.40989 54.56606 8871 ft 280 kts 311°
2026-05-07 07:14 24.42196 54.54924 8868 ft 281 kts 310°
2026-05-07 07:14 24.43389 54.53234 8864 ft 280 kts 311°
2026-05-07 07:14 24.44839 54.51872 8860 ft 273 kts 335°
2026-05-07 07:14 24.46633 54.51296 8873 ft 269 kts 358°
2026-05-07 07:15 24.48479 54.51578 8873 ft 270 kts 21°
2026-05-07 07:15 24.50059 54.52663 8873 ft 271 kts 44°
2026-05-07 07:15 24.51105 54.54374 8861 ft 273 kts 68°
2026-05-07 07:15 24.51416 54.56425 8865 ft 276 kts 92°
2026-05-07 07:16 24.50911 54.58466 8868 ft 283 kts 116°
2026-05-07 07:16 24.49769 54.60227 8873 ft 285 kts 125°
2026-05-07 07:16 24.48551 54.61947 8869 ft 285 kts 126°
2026-05-07 07:16 24.47325 54.63655 8868 ft 285 kts 125°
2026-05-07 07:17 24.46108 54.65366 8865 ft 284 kts 125°
2026-05-07 07:17 24.44843 54.66994 8842 ft 286 kts 139°
2026-05-07 07:17 24.43069 54.67984 8859 ft 292 kts 164°
2026-05-07 07:17 24.41040 54.68026 8868 ft 294 kts 192°
2026-05-07 07:18 24.39203 54.67081 8872 ft 293 kts 219°
2026-05-07 07:18 24.37937 54.65349 8872 ft 294 kts 247°
2026-05-07 07:18 24.37498 54.63199 8862 ft 289 kts 274°
2026-05-07 07:18 24.37945 54.61098 8871 ft 282 kts 299°
2026-05-07 07:19 24.39035 54.59332 8875 ft 279 kts 310°
2026-05-07 07:19 24.40232 54.57647 8866 ft 280 kts 311°
2026-05-07 07:19 24.41443 54.55979 8869 ft 280 kts 311°
2026-05-07 07:19 24.42637 54.54293 8870 ft 280 kts 310°
2026-05-07 07:20 24.43858 54.52633 8861 ft 278 kts 318°
2026-05-07 07:20 24.45488 54.51552 8864 ft 274 kts 342°
2026-05-07 07:20 24.47348 54.51300 8867 ft 270 kts
2026-05-07 07:20 24.49126 54.51899 8867 ft 270 kts 30°
2026-05-07 07:21 24.50533 54.53251 8869 ft 272 kts 53°
2026-05-07 07:21 24.51317 54.55134 8863 ft 274 kts 77°
2026-05-07 07:21 24.51320 54.57223 8871 ft 278 kts 101°
2026-05-07 07:21 24.50511 54.59159 8878 ft 283 kts 123°
2026-05-07 07:22 24.49316 54.60888 8867 ft 285 kts 125°
2026-05-07 07:22 24.48089 54.62592 8871 ft 284 kts 126°
2026-05-07 07:22 24.46865 54.64295 8865 ft 283 kts 125°
2026-05-07 07:22 24.45656 54.66002 8869 ft 283 kts 125°
2026-05-07 07:23 24.44208 54.67465 8857 ft 287 kts 150°
2026-05-07 07:23 24.42296 54.68117 8868 ft 293 kts 176°
2026-05-07 07:23 24.40285 54.67770 8871 ft 295 kts 203°
2026-05-07 07:23 24.38628 54.66484 8875 ft 296 kts 230°
2026-05-07 07:24 24.37659 54.64525 8871 ft 291 kts 258°
2026-05-07 07:24 24.37572 54.62350 8869 ft 286 kts 284°
2026-05-07 07:24 24.38333 54.60379 8876 ft 280 kts 308°
2026-05-07 07:24 24.39512 54.58678 8871 ft 281 kts 310°
2026-05-07 07:25 24.41917 54.55307 8869 ft 281 kts 310°
2026-05-07 07:25 24.42713 54.54189 8873 ft 280 kts 310°
2026-05-07 07:25 24.43951 54.52546 8859 ft 277 kts 320°
2026-05-07 07:26 24.45594 54.51516 8865 ft 272 kts 345°
2026-05-07 07:26 24.47464 54.51314 8866 ft 272 kts
2026-05-07 07:26 24.49223 54.51961 8867 ft 268 kts 31°
2026-05-07 07:26 24.50598 54.53348 8863 ft 272 kts 55°
2026-05-07 07:27 24.51338 54.55253 8873 ft 275 kts 78°
2026-05-07 07:27 24.51295 54.57343 8871 ft 279 kts 102°
2026-05-07 07:27 24.50447 54.59258 8872 ft 283 kts 124°
2026-05-07 07:27 24.49244 54.60978 8871 ft 285 kts 125°
2026-05-07 07:28 24.48023 54.62684 8868 ft 284 kts 126°
2026-05-07 07:28 24.46803 54.64385 8862 ft 283 kts 125°
2026-05-07 07:28 24.45594 54.66091 8859 ft 283 kts 126°
2026-05-07 07:28 24.44116 54.67521 8860 ft 288 kts 150°
2026-05-07 07:29 24.42197 54.68125 8868 ft 291 kts 177°